Snowfall_Accumulation
nan nan nan nan nan nan nan 0.0 0.0 0.0 0.0 0.0 0.0 0.0 0.0 nan 0.0 0.0 0.0 0.0 0.0 0.0 0.0 0.0 0.0 0.0 0.0 0.0 0.0 0.0 0.0 0.0 0.4 0.0 0.0 0.0 0.0 0.0 0.0 0.4 0.0 0.4 1.0 0.5
nan nan nan nan nan nan 0.0 0.0 0.0 0.0 0.0 0.2 0.3 0.0 0.0 0.0 0.0 0.0 0.0 0.0 0.0 0.0 0.0 0.0 0.0 0.0 0.0 0.0 0.0 0.0 0.0 0.1 0.2 0.1 0.0 0.0 0.0 0.0 0.0 0.0 0.1 0.0 4.4 0.4
nan nan nan nan nan nan 0.0 0.0 0.1 0.0 0.0 0.0 0.0 0.0 0.0 0.0 0.0 0.0 0.0 0.0 0.0 0.0 0.0 0.0 0.0 0.0 0.0 0.0 0.0 nan nan 0.0 0.0 0.3 0.0 0.0 0.0 0.0 0.0 0.0 0.8 0.3 0.3 0.0
nan nan nan nan nan nan 0.0 0.0 0.0 0.0 0.2 0.1 0.0 0.0 0.0 0.0 0.0 0.0 0.0 0.0 0.0 0.0 0.0 0.0 0.0 0.0 0.0 0.0 nan 0.0 0.0 0.0 0.0 0.0 0.0 0.0 0.0 0.0 0.0 0.0 0.0 0.3 0.0 0.0
nan nan nan nan nan nan 0.0 0.0 0.0 0.0 0.0 0.0 0.0 0.0 0.0 0.0 0.0 0.0 0.0 0.0 0.0 0.0 0.0 0.0 0.0 0.0 0.0 0.0 0.0 0.0 0.0 0.2 0.0 0.0 0.0 0.0 0.0 0.0 0.0 0.0 0.0 0.0 0.0 0.0
nan nan nan nan nan nan 0.0 0.0 0.0 0.0 nan 0.0 0.0 0.0 0.0 0.0 0.0 0.0 0.0 0.0 0.0 0.0 0.0 0.0 0.0 0.0 0.0 0.0 0.0 0.0 0.0 0.2 0.3 0.1 0.0 0.0 1.0 0.0 0.0 0.0 0.0 0.0 0.2 0.0
nan nan nan nan nan nan 0.0 0.0 0.0 0.0 0.2 0.1 0.0 0.0 0.0 0.0 0.0 0.0 0.0 0.0 0.0 0.0 0.0 0.0 0.0 0.0 0.0 0.0 0.0 0.0 0.1 0.1 0.3 1.7 0.9 3.0 0.0 0.0 0.0 0.0 0.0 0.0 0.0 0.0
nan nan nan nan nan nan 0.0 0.0 0.0 0.0 3.4 0.0 0.0 0.0 0.0 0.0 0.0 0.0 0.0 0.0 0.0 0.0 0.0 0.2 0.0 0.9 0.2 0.1 0.0 0.0 0.0 0.1 1.3 4.1 0.8 0.0 0.0 0.0 0.0 0.0 0.0 0.0 0.0 0.0
nan nan nan nan nan nan 0.0 0.0 0.0 0.0 0.0 0.1 0.0 0.0 0.0 0.1 0.0 0.2 0.0 0.0 0.0 0.0 0.4 0.6 0.3 1.2 0.0 0.2 0.0 0.0 0.0 0.1 0.7 1.4 1.2 3.1 0.0 0.0 0.0 0.0 0.1 0.0 0.0 0.0
nan nan nan nan nan nan 0.0 0.0 0.0 0.0 0.0 0.0 0.0 0.0 0.0 0.0 0.0 0.1 0.0 0.0 0.0 0.0 1.6 4.7 1.9 1.1 0.0 0.3 0.2 0.8 1.1 0.9 2.5 1.7 2.8 0.8 0.0 0.0 0.0 0.7 0.1 0.0 0.0 0.0
nan nan nan nan nan nan 0.0 0.0 0.0 0.0 0.0 0.0 0.0 0.0 0.0 0.0 0.0 0.2 0.0 0.2 0.2 0.5 0.8 1.4 0.9 3.7 0.5 0.4 0.0 0.0 0.2 1.5 4.1 1.6 2.6 3.1 0.0 0.0 0.2 0.2 0.0 0.0 0.0 0.0
nan nan nan nan nan nan nan 0.0 0.0 0.0 0.0 0.0 0.0 0.0 0.0 0.0 0.0 0.0 0.0 0.0 0.0 0.0 0.3 1.2 1.0 3.8 4.8 0.2 2.0 0.0 0.7 0.2 0.6 0.1 0.7 0.0 0.0 0.0 0.0 0.0 0.0 0.0 0.0 0.0
nan nan nan nan nan nan nan 0.0 0.0 0.0 0.1 0.0 0.0 0.0 0.0 0.0 0.0 0.0 0.0 0.0 0.0 0.0 0.0 0.3 0.7 1.0 0.8 4.0 0.7 0.2 0.0 0.0 0.3 0.1 0.0 0.0 0.0 0.0 0.0 0.0 0.0 0.0 0.0 0.0
nan nan nan nan nan nan nan 0.0 0.0 0.0 0.0 1.4 0.2 0.0 0.0 0.0 0.0 0.0 0.0 0.0 0.0 0.0 0.0 0.6 1.3 3.1 0.0 1.4 0.5 0.9 0.0 0.0 0.0 0.0 0.0 0.0 0.0 0.0 0.0 0.0 0.0 0.0 0.0 0.0
nan nan nan nan nan nan nan 0.0 0.0 0.0 0.0 0.6 0.3 0.0 0.0 0.0 0.0 0.0 0.0 0.0 0.0 0.0 0.4 3.8 1.4 0.3 0.6 0.6 0.4 0.6 0.0 0.0 0.4 0.6 0.0 0.0 0.0 0.0 0.0 0.0 0.0 0.0 0.0 0.0
nan nan nan nan nan nan 0.0 0.0 0.0 0.0 0.0 0.2 0.8 0.0 0.0 0.0 0.0 0.0 0.0 0.0 0.0 0.0 0.1 1.5 0.2 0.0 0.2 4.8 0.6 0.0 0.0 0.0 0.0 0.0 0.0 0.0 0.0 0.0 0.0 0.0 0.0 0.0 0.0 0.0
nan nan nan nan nan 0.0 0.0 0.0 0.0 nan 0.0 0.2 0.7 0.5 0.1 0.0 0.0 0.0 0.0 0.0 0.0 0.0 0.2 0.6 0.3 0.2 0.0 1.9 1.0 0.0 0.0 0.0 0.0 0.0 0.0 0.0 0.0 0.0 0.0 0.0 0.0 0.0 0.0 0.0
nan nan nan nan nan nan 0.0 0.0 nan nan 0.0 0.1 0.8 1.5 0.8 0.0 0.6 0.8 0.0 0.3 0.2 0.0 0.0 0.5 0.6 0.2 0.7 0.7 0.0 0.0 0.0 0.0 0.0 0.0 0.0 0.0 0.0 0.0 0.0 0.0 0.0 0.0 0.0 0.0
nan nan nan 0.0 0.0 0.1 0.0 nan nan 0.0 0.0 0.3 1.1 1.6 3.9 0.0 0.2 0.5 0.4 0.0 1.1 0.1 1.1 1.0 0.4 1.5 0.9 0.0 0.0 0.0 0.0 0.0 0.0 0.0 0.0 0.0 0.0 0.0 0.0 0.0 0.0 0.0 0.0 0.0
nan 0.0 0.0 0.5 0.3 nan nan 0.0 0.2 0.3 0.3 0.2 1.5 0.2 1.2 0.0 1.0 1.4 0.6 0.7 1.4 1.7 1.4 0.0 1.8 0.6 0.0 0.0 0.0 0.0 0.0 0.0 0.0 0.0 0.0 0.0 0.0 0.0 0.0 0.0 0.0 0.0 0.0 0.0
0.0 0.3 0.4 0.0 nan 0.0 0.1 0.6 0.5 0.3 0.8 0.2 0.5 1.0 1.3 0.1 1.4 1.6 0.8 2.0 2.4 3.1 1.0 2.0 1.7 1.4 0.0 0.0 0.0 0.0 0.0 0.0 0.0 0.0 0.0 0.0 0.0 0.0 0.0 0.0 0.0 0.0 0.1 0.0
0.0 0.1 0.0 0.0 0.0 0.5 2.1 3.9 1.9 0.8 0.8 1.6 1.7 0.9 0.4 0.6 0.0 0.6 1.5 2.1 2.4 2.9 0.4 4.8 2.9 0.5 0.0 0.0 0.0 0.0 0.0 0.0 0.0 0.0 0.0 0.0 0.0 0.0 0.0 0.1 0.2 0.5 0.9 2.8
0.0 0.2 0.3 0.2 3.3 24.3 8.2 6.4 4.0 7.4 2.2 3.6 3.3 7.3 0.8 0.7 0.2 1.6 1.6 5.7 5.2 0.6 5.9 1.2 1.1 0.0 0.0 0.0 0.0 0.0 0.0 0.0 0.0 0.0 0.0 0.0 0.0 0.0 1.4 0.8 1.9 1.6 0.4 0.1
0.5 2.3 29.3 7.2 10.5 5.1 4.7 4.5 4.6 3.7 4.4 2.4 1.3 2.3 1.5 2.7 2.7 2.8 7.6 3.2 1.6 8.3 5.7 2.9 0.6 0.1 0.1 0.0 0.0 0.0 0.0 0.2 0.2 0.2 0.6 1.1 2.0 2.4 2.4 2.8 2.9 2.4 2.0 0.3
1.0 2.3 21.0 8.7 4.8 4.8 5.1 4.7 3.9 2.4 1.0 1.3 1.6 1.4 0.3 4.3 7.7 4.1 4.0 9.3 8.4 4.2 3.9 3.2 0.7 0.1 0.1 0.1 0.0 0.0 0.2 1.2 0.5 0.1 0.4 1.6 1.0 2.2 0.7 1.6 1.1 0.8 2.4 2.4
1.4 2.3 6.0 5.9 8.7 15.7 11.7 8.7 6.2 0.6 1.1 1.1 1.1 3.4 6.6 7.5 5.3 5.1 5.6 3.3 3.7 6.2 4.7 2.7 0.5 0.3 0.4 0.2 0.2 0.4 0.4 0.4 0.6 0.6 0.5 0.7 1.6 1.5 0.3 0.8 1.4 3.9 3.9 7.9
2.0 13.8 11.3 8.3 8.2 12.9 9.8 6.0 2.0 0.0 2.5 11.1 3.5 5.9 4.7 1.8 5.3 3.4 3.2 10.2 5.8 5.6 3.2 1.1 0.4 0.6 0.7 0.9 1.1 1.0 0.5 0.5 0.4 0.5 0.5 0.6 1.0 1.0 0.6 0.6 0.1 0.2 0.7 6.2
Water_Equivalent
nan nan nan nan nan nan nan 0.00 0.00 0.00 0.00 0.00 0.00 0.00 0.00 nan 0.00 0.00 0.00 0.00 0.00 0.00 0.00 0.00 0.00 0.00 0.00 0.00 0.00 0.00 0.00 0.00 0.09 0.00 0.00 0.00 0.00 0.00 0.00 0.09 0.00 0.08 0.19 0.10
nan nan nan nan nan nan 0.00 0.00 0.00 0.00 0.00 0.04 0.07 0.00 0.00 0.00 0.00 0.00 0.00 0.00 0.00 0.00 0.00 0.00 0.00 0.00 0.00 0.00 0.00 0.00 0.00 0.02 0.03 0.02 0.00 0.00 0.00 0.00 0.00 0.00 0.02 0.01 0.85 0.08
nan nan nan nan nan nan 0.00 0.00 0.02 0.00 0.00 0.00 0.00 0.00 0.00 0.00 0.00 0.00 0.00 0.00 0.00 0.00 0.00 0.00 0.00 0.00 0.00 0.00 0.00 nan nan 0.00 0.00 0.07 0.00 0.00 0.00 0.00 0.00 0.00 0.15 0.05 0.06 0.00
nan nan nan nan nan nan 0.00 0.00 0.00 0.00 0.07 0.02 0.00 0.00 0.00 0.00 0.00 0.00 0.00 0.00 0.00 0.00 0.00 0.00 0.00 0.00 0.00 0.00 nan 0.00 0.00 0.00 0.00 0.00 0.00 0.00 0.00 0.00 0.00 0.00 0.00 0.05 0.00 0.00
nan nan nan nan nan nan 0.00 0.00 0.00 0.00 0.00 0.00 0.00 0.00 0.00 0.00 0.00 0.00 0.00 0.00 0.00 0.00 0.00 0.00 0.00 0.00 0.00 0.00 0.00 0.00 0.00 0.05 0.01 0.00 0.00 0.00 0.00 0.00 0.00 0.00 0.00 0.00 0.00 0.00
nan nan nan nan nan nan 0.00 0.00 0.00 0.00 nan 0.00 0.01 0.01 0.00 0.00 0.00 0.00 0.00 0.00 0.00 0.00 0.00 0.00 0.00 0.00 0.00 0.00 0.00 0.00 0.00 0.06 0.06 0.02 0.00 0.01 0.18 0.00 0.00 0.00 0.00 0.00 0.04 0.00
nan nan nan nan nan nan 0.00 0.00 0.00 0.00 0.06 0.02 0.01 0.00 0.00 0.00 0.00 0.00 0.00 0.00 0.00 0.00 0.00 0.00 0.00 0.00 0.00 0.00 0.00 0.00 0.01 0.02 0.07 0.33 0.16 0.57 0.01 0.00 0.00 0.00 0.00 0.00 0.00 0.00
nan nan nan nan nan nan 0.00 0.00 0.00 0.00 0.96 0.01 0.00 0.00 0.00 0.00 0.00 0.00 0.00 0.00 0.00 0.00 0.00 0.07 0.01 0.19 0.04 0.02 0.00 0.00 0.00 0.03 0.26 0.81 0.15 0.00 0.00 0.00 0.00 0.00 0.00 0.00 0.00 0.00
nan nan nan nan nan nan 0.00 0.00 0.00 0.00 0.01 0.02 0.00 0.00 0.00 0.04 0.00 0.05 0.00 0.00 0.00 0.00 0.09 0.15 0.06 0.24 0.01 0.05 0.00 0.00 0.00 0.01 0.15 0.27 0.22 0.57 0.00 0.00 0.00 0.00 0.02 0.00 0.00 0.00
nan nan nan nan nan nan 0.00 0.00 0.00 0.00 0.01 0.00 0.00 0.00 0.00 0.00 0.01 0.03 0.01 0.00 0.01 0.00 0.38 1.09 0.39 0.22 0.00 0.06 0.03 0.15 0.21 0.19 0.49 0.33 0.56 0.16 0.00 0.00 0.00 0.14 0.01 0.00 0.00 0.00
nan nan nan nan nan nan 0.00 0.00 0.00 0.00 0.00 0.00 0.00 0.00 0.00 0.00 0.00 0.06 0.00 0.06 0.06 0.13 0.20 0.34 0.20 0.79 0.12 0.09 0.00 0.01 0.04 0.30 0.81 0.33 0.51 0.57 0.00 0.00 0.03 0.05 0.00 0.00 0.00 0.00
nan nan nan nan nan nan nan 0.00 0.00 0.00 0.00 0.00 0.00 0.00 0.00 0.00 0.00 0.00 0.00 0.00 0.00 0.00 0.09 0.34 0.27 0.89 1.24 0.04 0.40 0.00 0.15 0.06 0.12 0.02 0.14 0.00 0.00 0.00 0.00 0.00 0.00 0.00 0.00 0.00
nan nan nan nan nan nan nan 0.00 0.00 0.00 0.03 0.00 0.00 0.00 0.00 0.00 0.00 0.00 0.00 0.01 0.00 0.00 0.00 0.10 0.21 0.23 0.20 0.84 0.15 0.04 0.00 0.00 0.07 0.02 0.00 0.00 0.00 0.00 0.00 0.00 0.00 0.00 0.00 0.00
nan nan nan nan nan nan nan 0.00 0.00 0.00 0.00 0.42 0.06 0.00 0.00 0.00 0.00 0.00 0.00 0.00 0.00 0.00 0.00 0.16 0.37 0.76 0.00 0.31 0.12 0.22 0.01 0.00 0.00 0.00 0.00 0.00 0.00 0.00 0.00 0.00 0.00 0.00 0.00 0.00
nan nan nan nan nan nan nan 0.00 0.00 0.00 0.00 0.19 0.09 0.00 0.00 0.00 0.00 0.00 0.00 0.00 0.00 0.00 0.12 1.04 0.38 0.08 0.16 0.14 0.09 0.13 0.00 0.00 0.12 0.14 0.00 0.00 0.00 0.00 0.00 0.00 0.00 0.00 0.00 0.00
nan nan nan nan nan nan 0.00 0.00 0.00 0.00 0.00 0.05 0.23 0.00 0.00 0.00 0.00 0.00 0.00 0.00 0.00 0.00 0.02 0.43 0.06 0.00 0.05 1.36 0.16 0.00 0.00 0.00 0.00 0.00 0.00 0.00 0.00 0.00 0.00 0.00 0.00 0.00 0.00 0.00
nan nan nan nan nan 0.00 0.00 0.00 0.00 nan 0.00 0.06 0.21 0.15 0.02 0.00 0.00 0.00 0.00 0.00 0.00 0.00 0.04 0.17 0.09 0.06 0.00 0.51 0.23 0.00 0.00 0.00 0.00 0.00 0.00 0.00 0.00 0.00 0.00 0.00 0.00 0.00 0.00 0.00
nan nan nan nan nan nan 0.00 0.00 nan nan 0.00 0.03 0.22 0.45 0.25 0.00 0.17 0.23 0.00 0.08 0.05 0.01 0.00 0.14 0.18 0.06 0.18 0.19 0.00 0.00 0.00 0.00 0.00 0.00 0.00 0.00 0.00 0.00 0.00 0.00 0.00 0.00 0.00 0.00
nan nan nan 0.00 0.00 0.03 0.00 nan nan 0.00 0.00 0.10 0.31 0.48 1.08 0.00 0.06 0.16 0.11 0.01 0.33 0.02 0.34 0.28 0.10 0.43 0.25 0.00 0.00 0.00 0.00 0.00 0.00 0.00 0.00 0.00 0.00 0.00 0.00 0.00 0.00 0.00 0.01 0.01
nan 0.00 0.00 0.14 0.07 nan nan 0.00 0.07 0.08 0.08 0.07 0.45 0.07 0.37 0.01 0.31 0.41 0.19 0.21 0.42 0.48 0.41 0.01 0.52 0.18 0.00 0.00 0.00 0.00 0.00 0.00 0.00 0.01 0.01 0.00 0.00 0.00 0.00 0.00 0.00 0.00 0.00 0.00
0.01 0.09 0.11 0.00 nan 0.00 0.04 0.17 0.15 0.07 0.24 0.06 0.15 0.30 0.38 0.04 0.41 0.49 0.24 0.58 0.72 0.80 0.25 0.57 0.43 0.32 0.00 0.00 0.00 0.00 0.00 0.00 0.00 0.00 0.00 0.00 0.00 0.00 0.00 0.00 0.00 0.01 0.02 0.01
0.00 0.02 0.00 0.00 0.00 0.15 0.58 1.00 0.55 0.21 0.21 0.48 0.51 0.26 0.11 0.17 0.00 0.16 0.45 0.59 0.62 0.63 0.11 1.30 0.56 0.11 0.00 0.00 0.00 0.00 0.00 0.00 0.00 0.00 0.00 0.00 0.00 0.00 0.01 0.02 0.03 0.09 0.16 0.48
0.00 0.07 0.08 0.06 0.98 4.73 1.93 1.34 1.01 1.96 0.65 1.08 0.99 2.20 0.23 0.21 0.06 0.47 0.44 1.41 1.02 0.18 1.41 0.24 0.21 0.00 0.00 0.00 0.00 0.00 0.00 0.00 0.00 0.00 0.00 0.00 0.00 0.00 0.24 0.13 0.33 0.29 0.07 0.01
0.14 0.74 5.13 1.83 2.37 1.03 0.95 0.94 1.22 1.06 1.29 0.70 0.38 0.68 0.45 0.79 0.79 0.81 1.79 0.76 0.39 1.55 1.04 0.53 0.14 0.03 0.03 0.01 0.00 0.00 0.00 0.05 0.04 0.04 0.12 0.20 0.35 0.40 0.41 0.48 0.48 0.39 0.33 0.06
0.25 0.53 3.23 1.57 1.03 1.19 1.33 1.39 1.17 0.72 0.31 0.39 0.47 0.42 0.09 1.07 1.81 0.95 0.86 1.74 1.54 0.76 0.71 0.63 0.20 0.04 0.02 0.01 0.00 0.00 0.04 0.21 0.08 0.02 0.07 0.28 0.17 0.36 0.12 0.28 0.19 0.15 0.41 0.41
0.30 0.44 1.16 1.36 1.86 3.27 3.16 2.47 1.85 0.18 0.32 0.34 0.32 0.74 1.39 1.43 1.11 0.97 1.05 0.59 0.61 1.11 0.93 0.57 0.13 0.07 0.10 0.05 0.04 0.06 0.07 0.06 0.08 0.10 0.08 0.12 0.28 0.26 0.06 0.14 0.25 0.66 0.68 1.18
0.41 2.53 3.04 1.94 1.96 2.79 2.46 1.57 0.57 0.01 0.75 2.59 0.80 1.09 0.76 0.39 0.94 0.56 0.56 1.73 1.06 1.26 0.70 0.24 0.07 0.10 0.12 0.15 0.17 0.17 0.08 0.07 0.06 0.07 0.07 0.09 0.16 0.18 0.11 0.10 0.02 0.04 0.13 0.94
SL_Ratio
nan nan nan nan nan nan nan nan 5.0 nan nan nan nan nan nan nan nan nan nan nan nan nan nan nan nan nan nan nan nan nan nan nan 4.8 nan nan nan nan nan nan 4.9 5.0 5.0 5.1 5.3
nan nan nan nan nan nan nan nan nan nan nan 3.8 3.9 nan nan nan nan nan nan nan nan nan nan nan nan nan nan nan nan nan nan 4.0 5.0 5.0 nan nan nan nan nan nan 4.6 5.2 5.1 5.1
nan nan nan nan nan nan nan nan 3.5 nan nan nan nan nan nan nan nan nan nan nan nan nan nan nan nan nan nan nan nan nan nan nan nan 4.7 nan nan nan nan nan nan 5.0 5.0 5.0 nan
nan nan nan nan nan nan nan nan 4.0 nan 3.3 3.3 nan nan nan nan nan nan nan nan nan nan 4.3 nan nan nan nan nan nan nan nan nan nan nan nan nan nan nan nan nan nan 4.9 nan nan
nan nan nan nan nan nan nan 5.0 nan nan nan nan nan nan nan nan nan nan nan nan nan nan 4.2 nan nan nan nan nan nan nan nan 3.7 4.6 5.0 nan nan nan nan nan nan nan nan nan nan
nan nan nan nan nan nan nan nan nan nan nan 5.0 3.3 3.5 nan nan nan nan nan nan nan 4.0 nan nan nan nan nan nan nan nan 4.0 4.1 5.1 5.4 nan 5.4 5.3 nan nan nan nan nan 4.6 nan
nan nan nan nan nan nan nan nan nan 3.3 3.6 3.6 3.4 nan nan nan nan nan nan nan nan nan nan nan nan nan nan nan nan nan 3.8 4.4 4.9 5.1 5.4 5.3 5.0 nan nan nan nan nan nan nan
nan nan nan nan nan nan nan nan nan nan 3.5 3.2 nan nan nan nan nan nan nan nan nan nan nan 3.4 3.9 4.7 4.4 4.7 nan nan nan 4.6 5.1 5.1 5.1 5.3 nan nan nan nan nan nan nan nan
nan nan nan nan nan nan nan nan nan nan 3.3 3.4 nan nan nan 3.4 10.0 3.4 nan nan nan nan 3.9 4.1 5.4 5.0 4.8 4.8 5.0 nan 0.0 4.0 4.8 5.1 5.3 5.5 nan nan nan nan 5.2 nan nan nan
nan nan nan nan nan nan nan nan nan nan 3.0 nan nan nan nan nan 3.4 3.4 3.1 nan 3.5 nan 4.2 4.3 4.9 5.0 nan 5.0 5.2 5.2 5.0 5.1 5.1 5.0 5.1 5.1 nan nan nan 5.1 5.0 nan nan nan
nan nan nan nan nan nan nan nan nan nan 5.0 nan nan nan nan nan nan 3.4 nan 3.4 3.4 3.5 4.0 4.0 4.5 4.6 4.3 5.0 5.0 5.0 4.9 5.1 5.1 4.8 5.1 5.4 nan nan 5.0 4.1 nan nan nan nan
nan nan nan nan nan nan nan nan nan nan nan nan nan nan nan nan nan nan nan 3.0 nan 2.9 3.6 3.7 3.6 4.3 3.9 5.0 5.0 nan 4.9 4.3 4.6 4.6 4.8 nan nan nan nan nan nan nan nan nan
nan nan nan nan nan nan nan nan nan nan 3.3 nan nan nan nan nan nan nan nan 3.4 nan 0.0 nan 3.6 3.5 4.4 4.1 4.8 4.5 4.7 nan nan 4.1 4.7 nan nan nan nan nan nan nan nan nan nan
nan nan nan nan nan nan nan nan nan nan nan 3.4 3.4 nan nan nan nan nan nan nan nan nan nan 3.6 3.4 4.0 nan 4.6 3.9 4.0 3.9 nan nan nan nan nan nan nan nan nan nan nan nan nan
nan nan nan nan nan nan nan nan nan nan nan 3.4 3.4 nan nan nan nan nan nan nan nan nan 3.4 3.7 3.5 3.9 3.6 4.0 3.7 4.5 nan nan 3.8 4.0 nan nan nan nan nan nan nan nan nan nan
nan nan nan nan nan nan nan nan nan nan nan 3.4 3.4 3.3 nan nan nan nan nan nan nan nan 3.3 3.5 3.5 nan 3.6 3.5 4.0 nan nan nan nan nan nan nan nan nan nan nan nan nan nan nan
nan nan nan nan nan nan nan 5.0 nan nan nan 3.4 3.4 3.5 3.4 nan nan nan nan nan nan nan 3.4 3.4 3.5 3.4 3.6 3.7 4.3 nan nan nan nan nan nan nan nan nan nan nan nan nan nan nan
nan nan nan nan nan nan nan nan nan nan nan 3.4 3.5 3.4 3.4 nan 3.4 3.4 nan 3.4 3.4 3.2 nan 3.4 3.4 3.4 3.8 3.8 nan nan nan nan nan nan nan nan nan nan nan nan nan nan nan nan
nan nan nan nan nan 3.4 2.5 nan nan nan 3.3 3.4 3.5 3.4 3.6 nan 3.4 3.4 3.4 3.4 3.4 3.3 3.4 3.4 3.4 3.4 3.7 2.5 nan nan nan nan nan nan nan nan nan nan nan nan nan nan 2.7 3.0
nan nan 4.3 3.4 3.4 nan nan 3.3 3.4 3.4 3.4 3.4 3.4 3.4 3.4 3.3 3.4 3.4 3.4 3.4 3.4 3.4 3.4 3.3 3.5 3.6 nan nan nan nan nan nan nan 3.7 3.8 nan 3.3 nan nan nan nan nan nan nan
3.5 3.4 3.4 nan nan nan 3.4 3.2 3.4 3.4 3.4 3.4 3.4 3.4 3.4 3.3 3.4 3.4 3.4 3.4 3.4 3.9 4.1 3.5 3.8 4.4 0.0 nan nan nan nan nan nan nan nan nan nan nan 5.0 nan 3.8 4.7 5.1 5.2
nan 3.3 nan 3.3 nan 3.4 3.6 3.9 3.5 3.8 3.7 3.4 3.4 3.4 3.4 3.4 nan 3.4 3.3 3.6 3.8 4.6 3.4 3.7 5.1 4.2 nan nan nan nan nan nan nan nan nan nan nan nan 3.9 4.8 5.1 5.3 5.5 5.8
nan 3.4 3.5 2.5 3.4 5.1 4.2 4.8 3.9 3.8 3.4 3.4 3.4 3.3 3.4 3.4 3.4 3.4 3.6 4.0 5.1 3.6 4.2 5.2 5.1 nan nan nan nan nan nan nan nan nan nan nan 5.7 5.7 5.8 6.1 5.6 5.4 5.4 5.3
3.3 3.1 5.7 3.9 4.4 5.0 4.9 4.8 3.8 3.5 3.4 3.4 3.4 3.4 3.4 3.4 3.5 3.4 4.3 4.2 4.1 5.4 5.5 5.5 4.7 3.8 3.5 3.5 nan nan nan 4.5 4.3 5.3 5.1 5.5 5.8 6.0 5.8 5.9 5.9 6.2 6.0 5.7
4.1 4.3 6.5 5.5 4.6 4.0 3.9 3.4 3.4 3.4 3.4 3.4 3.4 3.4 3.4 4.0 4.3 4.3 4.6 5.4 5.5 5.5 5.5 5.1 3.4 3.6 3.7 3.6 nan 5.0 5.3 5.6 5.5 5.3 5.4 5.7 5.8 6.0 6.0 5.8 5.6 5.5 5.9 5.9
4.7 5.1 5.2 4.3 4.7 4.8 3.7 3.5 3.4 3.4 3.4 3.4 3.4 4.6 4.7 5.2 4.8 5.2 5.4 5.6 6.0 5.5 5.0 4.7 3.9 4.1 4.5 4.6 5.9 6.2 6.2 6.2 6.5 6.6 6.4 6.0 5.7 5.7 5.5 5.5 5.5 5.9 5.8 6.7
4.9 5.5 3.7 4.3 4.2 4.6 4.0 3.8 3.5 3.3 3.4 4.3 4.3 5.4 6.1 4.6 5.6 6.1 5.7 5.9 5.5 4.5 4.6 4.7 5.3 5.7 6.0 6.2 6.4 6.1 6.3 6.5 6.6 6.6 7.0 6.7 6.2 5.8 5.7 5.7 5.3 5.5 5.5 6.5